STARLINK-5721, 55617

Orbit data source: Space-Track

STARLINK-5721, 55617 is a payload satellite owned by SpaceX/Seattle (US) in LEO that was launched on Sun, 12 Feb 2023 UTC via an FALCON 9 launch vehicle from the Air Force Eastern Test Range (AFETR). Payload-class satellites include a variety of spacecraft equipped with specific instruments for various scientific and technological missions. These include communications satellites like Starlink; space stations such as the ISS; scientific satellites like the Hubble; Earth observation satellites from companies like Planet Labs, Umbra, and HawkEye 360; GPS; miniature CubeSats for education and research; and military/defense satellites.

Loading next visibility...
Identifier
55617, 2023-020BA
Orbit
LEO
Country
Flag of USUS
Related business
Manufacturer
SpaceX/Seattle
Mission
Operational Commercial Communications
Bus & Motor
STARLINK, Unknown motor
Mass
305 kg wet, ~290 kg dry
Launch date (UTC)
2023-02-12 (4 years ago)
Launch vehicle
FALCON 9
Launch site
Air Force Eastern Test Range (AFETR)
Object type
Payload
Rocket body
Debris
Shape & HBR
Box + 1 Pan, 10.1 m
Radar Cross Section
13.562 m², Large (>1 m²)

Expand to show TLE details & history
Last TLE update: 6 hours ago

TLE from 6 hours ago
0 STARLINK-5721
1 55617U 23020BA  26264.26825615  .00000503  00000-0  27805-4 0  9990
2 55617  43.0012 329.4395 0001260 272.2698  87.8010 15.27576958198957
Epoch: 2026-09-21T06:26Z
TLE epoch observation values (Epoch: 2026-09-21T06:26:17.331Z)
Latitude
0.00003°
Longitude
-127.2832°
Altitude
482.801 km
Speed
7.626 km/s
True Right ascension
21h 57m 45s
True Declination
0° 00' 00"
Sunlit
Object was in full shadow at epoch
Visualization orbit readout
Latitude
Unknown
Longitude
Unknown
Altitude
Unknown
Speed
Unknown
Apparent Right ascension
Unknown
Apparent Declination
Unknown
Sunlit
N/A
Visualization observer readout
Local Sidereal Time
04:58:40
Azimuth
Unknown
Elevation
Unknown
Doppler factor
Unknown
Orbital elements
Apogee altitude
485.868 km
Perigee altitude
484.138 km
Semi-major axis
6,863.14 km
Eccentricity
0.00013
Inclination
43.0012°
RAAN
329.4395°
Arg. of periapsis
272.2698°
True anomaly
87.81543°
Mean anomaly
87.801°
Eccentric anomaly
87.80821°
Mean motion
3.81732 °/min
Orbital period
94.31 mins
BSTAR
0.000027805
Loading maneuver chart data...
Computing Atmospheric mass density...
Loading historical data...
Loading historical data...
Loading historical data...
Loading historical data...
Loading historical data...
Loading historical data...
Loading historical data...

Documentation

Showing up to 5 results
|